Location: Unspecified
(37.6100°N, 2.7800°W)
Time: 02:39:50
(UTC+00:00)

Hubble Space Telescope - Visible Passes

Search period start: 14 December 2018 00:00
Search period end: 24 December 2018 00:00
Orbit: 537 x 540 km, 28.5° (Epoch: 13 December)

Date Brightness Start Highest point End Pass type
(mag) Time Alt. Az. Time Alt. Az. Time Alt. Az.
20 Dec 3.5 19:21:03 10° SSW 19:21:22 11° S 19:21:22 11° S visible
21 Dec 3.2 19:10:05 10° SSW 19:11:35 14° S 19:11:35 14° S visible
22 Dec 2.9 18:59:15 10° SSW 19:01:46 17° S 19:01:46 17° S visible
23 Dec 2.7 18:48:30 10° SW 18:51:29 19° S 18:51:58 19° SSE visible
